Regional Weather Roundup
Issued by NWS

Home | Current Version | Previous Version | Graphics & Text | Print | Product List | Glossary On
Versions: 1 2 3 4 5 6 7 8 9 10 11 12 13 14 15 16 17 18 19 20 21 22 23 24 25 26 27 28 29 30 31 32 33 34 35 36 37 38 39 40 41 42 43 44 45 46 47 48 49 50
000
ASUS43 KLOT 020412
RWRIL

ILLINOIS REGIONAL WEATHER ROUNDUP
NATIONAL WEATHER SERVICE CHICAGO/ROMEOVILLE IL
1100 PM CDT SAT AUG 01 2015

NOTE: "FAIR" INDICATES FEW OR NO CLOUDS BELOW 12,000 FEET WITH NO
SIGNIFICANT WEATHER AND/OR OBSTRUCTIONS TO VISIBILITY.

* THESE STATIONS ARE NOT UNDER NWS QUALITY CONTROL. THEY ALSO MAY NOT
  REPORT WEATHER SUCH AS PRECIPITATION OR FOG.

ILZ001-002-007-009-015-016-024-020500-
NORTHWEST ILLINOIS

CITY           SKY/WX    TMP DP  RH WIND       PRES   REMARKS
MOLINE         CLEAR     74  68  81 S7        29.91S
STERLING*      CLEAR     72  66  83 SW5       29.88F
SAVANNA*       FAIR      74  67  78 S6        29.90S
$$

ILZ003-004-008-010-011-017-018-020500-
NORTH CENTRAL ILLINOIS

CITY           SKY/WX    TMP DP  RH WIND       PRES   REMARKS
ROCKFORD       CLEAR     70  65  84 S6        29.91F
FREEPORT*      CLEAR     71  66  86 SW8       29.92S
ROCHELLE*      CLEAR     67  65  94 SW6       29.92S
DE KALB*       CLEAR     73  66  78 W9        29.92S
PERU*          CLEAR     72  65  78 SW8       29.93S
$$

ILZ005-006-012>014-019>023-020500-
NORTHEAST ILLINOIS

CITY           SKY/WX    TMP DP  RH WIND       PRES   REMARKS
CHICAGO-OHARE  CLEAR     76  64  66 W8        29.89F
CHICAGO-MIDWAY PTCLDY    78  63  59 SW10      29.90F HX  80
AURORA         CLEAR     72  64  76 SW6       29.91F
LANSING*       PTCLDY    73  63  71 SW6       29.91F
JOLIET*        PTCLDY    75  66  73 SW5       29.91F
WAUKEGAN       CLEAR     74  65  73 SW5       29.88S
DUPAGE AIRPORT CLEAR     73  64  73 SW9       29.91S
KANKAKEE*      PTCLDY    69  66  91 CALM      29.94S
WHEELING       CLEAR     77  63  61 SW7       29.90S
MORRIS*        PTCLDY    71  65  82 SW6       29.91F
ROMEOVILLE*    PTCLDY    74  64  69 SW7       29.91F
NORTHERLY ISL    N/A     79  61  53 SW5         N/A  HX  80
$$

LMZ740>746-020500-
SOUTHERN LAKE MICHIGAN

STATION/POSITION SKY/WX   TEMP    WIND        PRES    VSBY  WAVE
                          AIR SEA DIR/SP/G                  HT/PER
                          (F)     (DEG/KT/KT) (MB)    (MI)  (FT/S)
HARRISON CRIB              80     250/ 16/ 19   N/A
BURNHAM HARBOR             79     250/  5/  9   N/A
CALUMET HARBOR             79     230/  7/ 10   N/A
BURNS HARBOR               78     230/ 10/ 13 1013.2S
MICHIGAN CITY              77     190/ 13/ 15   N/A
MICHIGAN CITY 6N           76 74  240/ 14/ 17   N/A           2/ 2
ST. JOSEPH                 75 73  260/ 14/ 16   N/A           2/ 3
$$

ILZ025>027-034>036-040-047-049-050-058-095>099-020500-
WEST-CENTRAL ILLINOIS

CITY           SKY/WX    TMP DP  RH WIND       PRES   REMARKS
QUINCY         PTCLDY    74  68  81 S3        29.95F
GALESBURG*     PTCLDY    71  68  90 S5        29.94F
MACOMB*        PTCLDY    72  70  94 S3        29.97S
JACKSONVILLE*  CLEAR     75  68  78 S3        29.96S
PITTSFIELD*    PTCLDY    75  69  82 S3        29.97F
$$

ILZ028>032-037-038-041>044-048-051>054-059>061-020500-
CENTRAL ILLINOIS

CITY           SKY/WX    TMP DP  RH WIND       PRES   REMARKS
PONTIAC        PTCLDY    72  67  84 SW6       29.95S
BLOOMINGTON    PTCLDY    72  66  81 SW8       29.97F
DECATUR        PTCLDY    71  63  75 SW7       29.98S
PEORIA         PTCLDY    74  65  73 SW5       29.95S
LACON*         PTCLDY    70  65  84 CALM      29.93S
LINCOLN*       CLEAR     71  64  78 CALM      29.96S
SPRINGFIELD    CLEAR     71  65  81 S5        29.97S
TAYLORVILLE    CLEAR     66  64  94 S5        29.98S
$$

ILZ033-039-045-046-055>057-062-063-020500-
EAST-CENTRAL ILLINOIS

CITY           SKY/WX    TMP DP  RH WIND       PRES   REMARKS
CHAMPAIGN      MOCLDY    67  63  87 SW6       29.97F
DANVILLE*      PTCLDY    64  63  97 CALM      29.94F
RANTOUL*       FAIR      71  65  82 SW6       29.96S
MATTOON        PTCLDY    73  61  65 SW6       29.97S
PARIS*         PTCLDY    65  64  94 CALM      29.98F
$$

ILZ079-100>102-020500-
SOUTHWEST ILLINOIS

CITY           SKY/WX    TMP DP  RH WIND       PRES   REMARKS
ALTON          MOCLDY    70  67  92 CALM      29.98S
BELLEVILLE     MOCLDY    75  73  91 SE2       29.97S
CAHOKIA*       MOCLDY    77  69  76 CALM      29.97S
SPARTA*        PTCLDY    75  69  82 SE5       29.99S
$$

ILZ064>066-069>071-074>076-080>082-084>086-088>090-092>094-020500-
SOUTH-CENTRAL ILLINOIS

CITY           SKY/WX    TMP DP  RH WIND       PRES   REMARKS
CARBONDALE     CLEAR     73  68  84 CALM      29.98S
CAIRO*         CLEAR     75  71  88 E3        29.99R
EFFINGHAM*     CLEAR     68  64  85 CALM      30.00S
MARION         CLEAR     73  68  83 CALM      30.00R
MT. VERNON     PTCLDY    66  63  88 CALM      30.00R
CENTRALIA*     PTCLDY    69  65  89 CALM      29.99R
SALEM*         PTCLDY    70  66  88 CALM      29.99R
METROPOLIS*    CLEAR     72  72 100 CALM      30.00R
$$

ILZ067-068-072-073-078-083-087-091-020500-
SOUTHEAST ILLINOIS

CITY           SKY/WX    TMP DP  RH WIND       PRES   REMARKS
LAWRENCEVILLE  PTCLDY    68  65  90 CALM      29.99S
FLORA*         PTCLDY    67  64  90 CALM      29.99S
FAIRFIELD*     PTCLDY    69  65  89 CALM      29.97F
HARRISBURG*    CLEAR     69  68  97 CALM      30.00S
ROBINSON*      CLEAR     65  63  93 CALM      29.99S
CARMI*         CLEAR     66  61  84 CALM      29.98S
$$

ABBREVIATIONS USED IN REMARKS
   TC - TEMPERATURE IN CELSIUS
  WCI - WIND CHILL INDEX
   HX - HEAT INDEX
  VSB - VISIBILITY
$$




USA.gov is the U.S. government's official web portal to all federal, state and local government web resources and services.